EW9136 Weather Reports


time (UTC)temp
F
wind
direction
speed
knots
gust
knots
rain 1hr
in
rain 24hr
in
rain mn
in
humidity
%
barometer
mb
20191112231633 42 358 3.5 10.4 0.01 0.20 0.20 93 997.5
20191112230135 43 294 2.6 10.4 0.02 0.20 0.20 93 997.3
20191112224752 43 302 5.2 13.0 0.01 0.19 0.19 92 997.3
20191112223126 43 286 7.0 16.5 0.01 0.19 0.19 93 997.0
20191112221646 43 307 5.2 13.0 0.01 0.19 0.19 93 996.8
20191112214623 43 294 5.2 10.4 0.00 0.18 0.18 92 996.4
20191112213155 44 341 7.0 12.2 0.00 0.18 0.18 92 996.2
20191112211731 44 301 7.8 12.2 0.01 0.18 0.18 92 996.1
20191112210213 44 341 7.8 15.6 0.02 0.18 0.18 92 995.8
20191112204558 44 304 7.0 11.3 0.02 0.18 0.18 93 995.8
20191112203228 44 320 7.0 11.3 0.02 0.18 0.18 93 995.5
20191112201704 44 332 7.0 13.9 0.01 0.17 0.17 92 995.2
20191112200136 44 313 6.1 13.0 0.00 0.17 0.17 91 995.1
20191112194604 44 337 9.6 14.8 0.00 0.17 0.17 90 994.7
20191112193047 44 352 9.6 17.4 0.00 0.17 0.17 91 994.5
20191112191703 44 342 9.6 14.8 0.00 0.17 0.17 91 994.3
20191112190136 44 335 7.8 13.0 0.00 0.17 0.17 90 994.0
20191112184706 44 331 7.0 14.8 0.01 0.17 0.17 92 993.9
20191112181632 44 303 6.1 9.6 0.01 0.17 0.17 93 993.4
20191112180115 44 316 6.1 10.4 0.01 0.17 0.17 92 993.1
20191112174703 44 282 3.5 11.3 0.01 0.16 0.16 93 993.0
20191112173127 44 328 7.0 10.4 0.01 0.16 0.16 92 992.7
20191112171809 44 295 7.0 11.3 0.02 0.16 0.16 93 992.4
20191112170130 44 295 6.1 12.2 0.02 0.16 0.16 93 992.2
20191112164632 44 308 7.8 13.9 0.02 0.15 0.15 93 992.0
20191112163135 44 329 5.2 13.0 0.02 0.15 0.15 92 991.8
20191112161552 45 295 4.3 12.2 0.00 0.13 0.13 90 991.3
20191112160039 45 321 7.0 18.2 0.00 0.13 0.13 89 991.2
20191112154600 45 292 9.6 16.5 0.00 0.13 0.13 89 990.7
20191112153049 45 306 7.0 13.9 0.00 0.13 0.13 92 990.4
20191112151558 45 287 5.2 13.9 0.01 0.13 0.13 92 990.2
20191112150059 45 268 4.3 12.2 0.02 0.13 0.13 92 989.9
20191112144601 45 304 7.0 13.9 0.02 0.13 0.13 92 989.7
20191112143104 45 322 7.0 20.0 0.02 0.13 0.13 92 989.4
20191112141559 44 338 7.0 11.3 0.01 0.13 0.13 94 989.1
20191112140046 43 266 7.8 13.9 0.00 0.12 0.12 95 988.8
20191112134601 42 246 6.1 14.8 0.00 0.12 0.12 95 988.7
20191112133021 42 270 7.0 15.6 0.00 0.12 0.12 94 988.7
20191112131532 41 244 7.8 14.8 0.03 0.12 0.12 95 988.8
20191112130029 41 262 6.1 12.2 0.05 0.12 0.12 94 988.7
20191112124625 41 256 7.0 13.0 0.05 0.12 0.12 93 988.8
20191112123149 42 231 6.1 14.8 0.05 0.12 0.12 92 988.8
20191112121627 42 255 7.8 14.8 0.02 0.09 0.09 89 988.9
20191112120119 43 274 6.1 12.2 0.00 0.08 0.07 87 989.0
20191112114832 43 305 3.5 13.9 0.00 0.08 0.07 86 989.0
20191112113150 44 267 6.1 13.0 0.00 0.08 0.07 84 988.9
20191112110233 44 267 5.2 11.3 0.00 0.08 0.07 85 988.9
20191112104638 44 272 3.5 10.4 0.00 0.08 0.07 88 988.9
20191112103235 43 274 5.2 11.3 0.00 0.08 0.07 87 989.0
20191112101628 43 240 5.2 9.6 0.00 0.08 0.07 88 989.0
20191112100204 42 230 6.1 10.4 0.00 0.08 0.07 88 988.8
20191112094744 42 254 5.2 12.2 0.00 0.08 0.07 89 988.8
20191112093123 41 233 4.3 11.3 0.00 0.08 0.07 90 988.8
20191112091532 41 233 6.1 11.3 0.00 0.08 0.07 90 988.6
20191112090040 41 241 5.2 8.7 0.00 0.08 0.07 91 988.6
20191112084609 41 230 4.3 12.2 0.00 0.08 0.07 91 988.6
20191112083105 41 214 7.0 10.4 0.00 0.08 0.07 91 988.6
20191112081531 41 256 7.0 13.0 0.00 0.08 0.07 91 988.6
20191112080037 41 228 7.0 9.6 0.00 0.08 0.07 91 988.5
20191112074551 41 237 6.1 12.2 0.00 0.08 0.07 91 988.5
20191112073037 41 210 7.0 12.2 0.00 0.08 0.07 91 988.4
20191112071524 41 261 4.3 14.8 0.00 0.08 0.07 91 988.4
20191112070015 41 254 7.0 15.6 0.01 0.11 0.07 91 988.3
20191112064558 42 249 6.1 16.5 0.01 0.11 0.07 91 988.5
20191112063017 41 245 6.1 19.1 0.01 0.11 0.07 91 988.4
20191112061530 41 235 9.6 18.2 0.03 0.11 0.07 91 988.5
20191112060024 42 301 8.7 21.7 0.06 0.12 0.06 91 988.6
20191112054536 41 228 8.7 20.0 0.06 0.12 0.06 92 988.6
20191112053059 42 239 10.4 19.1 0.06 0.12 0.06 91 988.7
20191112051508 42 257 10.4 22.6 0.04 0.09 0.04 90 988.7
20191112050006 42 243 11.3 24.3 0.01 0.08 0.01 87 988.5
20191112044515 43 236 12.2 20.9 0.01 0.08 0.01 86 988.6
20191112043003 43 219 11.3 18.2 0.00 0.07 0.00 85 988.8
20191112041808 43 261 10.4 20.9 0.00 0.07 0.00 85 989.1
20191112040213 43 237 13.0 22.6 0.00 0.10 0.00 85 989.4
20191112034736 42 239 9.6 20.0 0.00 0.10 0.00 85 989.5
20191112033135 42 254 8.7 20.0 0.00 0.10 0.00 86 989.7
20191112031731 42 212 11.3 21.7 0.00 0.10 0.00 86 990.1
20191112030142 42 243 10.4 19.1 0.00 0.13 0.00 86 990.2
20191112024616 42 227 13.0 21.7 0.00 0.13 0.00 86 990.3
20191112023154 42 207 8.7 19.1 0.00 0.13 0.00 86 990.5
20191112021716 42 283 9.6 21.7 0.00 0.13 0.00 86 990.7
20191112020128 42 235 11.3 23.5 0.00 0.21 0.00 86 990.9
20191112014635 41 263 8.7 18.2 0.00 0.21 0.00 87 991.0
20191112013051 41 260 10.4 20.0 0.00 0.21 0.00 86 991.3
20191112011604 41 245 10.4 20.9 0.00 0.21 0.00 85 991.2
20191112010051 41 210 7.8 17.4 0.00 0.22 0.00 85 991.4
20191112004554 41 284 11.3 20.0 0.00 0.22 0.00 85 991.3
20191112003053 41 243 9.6 18.2 0.00 0.22 0.00 86 991.4
20191112001545 41 269 10.4 21.7 0.00 0.22 0.00 87 991.3
20191112000053 41 245 10.4 20.0 0.00 0.22 0.22 87 991.4
20191111234555 41 236 11.3 20.0 0.00 0.22 0.22 87 991.6
20191111233047 41 220 8.7 20.9 0.00 0.22 0.22 87 991.8